owner,sensor,date,latitude,longitude,vertical_datum,sea_water_practical_salinity,qcFlag 
TCOON,ioos:station:TCOON:042:1,2012-03-01T00:00:00Z,27.8888,-97.5696,0.0,20.3,1111122 
TCOON,ioos:station:TCOON:042:1,2012-03-01T01:00:00Z,27.8888,-97.5696,0.0,19.3,1111122 
TCOON,ioos:station:TCOON:042:1,2012-03-01T01:30:00Z,27.8888,-97.5696,0.0,19.4,1111122 
TCOON,ioos:station:TCOON:042:1,2012-03-01T02:00:00Z,27.8888,-97.5696,0.0,19.3,1111122 
TCOON,ioos:station:TCOON:042:1,2012-03-01T03:00:00Z,27.8888,-97.5696,0.0,19.6,1111122 
TCOON,ioos:station:TCOON:042:1,2012-03-01T04:00:00Z,27.8888,-97.5696,0.0,19.8,1111122 
TCOON,ioos:station:TCOON:042:1,2012-03-01T05:30:00Z,27.8888,-97.5696,0.0,19.8,1111122 
TCOON,ioos:station:TCOON:042:1,2012-03-01T06:30:00Z,27.8888,-97.5696,0.0,19.8,1111122 
TCOON,ioos:station:TCOON:042:1,2012-03-01T07:00:00Z,27.8888,-97.5696,0.0,20.1,1111122 
TCOON,ioos:station:TCOON:042:1,2012-03-01T07:30:00Z,27.8888,-97.5696,0.0,20.1,1111122 
TCOON,ioos:station:TCOON:042:1,2012-03-01T08:00:00Z,27.8888,-97.5696,0.0,20.0,1111122 
TCOON,ioos:station:TCOON:042:1,2012-03-01T08:30:00Z,27.8888,-97.5696,0.0,20.0,1111122 
TCOON,ioos:station:TCOON:042:1,2012-03-01T09:00:00Z,27.8888,-97.5696,0.0,20.0,1111122 
TCOON,ioos:station:TCOON:042:1,2012-03-01T10:00:00Z,27.8888,-97.5696,0.0,20.0,1111122 
TCOON,ioos:station:TCOON:042:1,2012-03-01T11:00:00Z,27.8888,-97.5696,0.0,19.9,1111122 
TCOON,ioos:station:TCOON:042:1,2012-03-01T12:00:00Z,27.8888,-97.5696,0.0,19.9,1111122 
TCOON,ioos:station:TCOON:042:1,2012-03-01T12:30:00Z,27.8888,-97.5696,0.0,20.0,1111122 
TCOON,ioos:station:TCOON:042:1,2012-03-01T13:30:00Z,27.8888,-97.5696,0.0,20.0,1111122 
TCOON,ioos:station:TCOON:042:1,2012-03-01T15:00:00Z,27.8888,-97.5696,0.0,20.2,1111122 
TCOON,ioos:station:TCOON:042:1,2012-03-01T15:30:00Z,27.8888,-97.5696,0.0,20.2,1111122 
TCOON,ioos:station:TCOON:042:1,2012-03-01T16:00:00Z,27.8888,-97.5696,0.0,20.2,1111122 
TCOON,ioos:station:TCOON:042:1,2012-03-01T16:30:00Z,27.8888,-97.5696,0.0,20.2,1111122 
TCOON,ioos:station:TCOON:042:1,2012-03-01T17:00:00Z,27.8888,-97.5696,0.0,20.2,1111122 
TCOON,ioos:station:TCOON:042:1,2012-03-01T17:30:00Z,27.8888,-97.5696,0.0,20.1,1111122 
TCOON,ioos:station:TCOON:042:1,2012-03-01T18:30:00Z,27.8888,-97.5696,0.0,20.1,1111122 
TCOON,ioos:station:TCOON:042:1,2012-03-01T20:00:00Z,27.8888,-97.5696,0.0,19.7,1111122 
TCOON,ioos:station:TCOON:042:1,2012-03-01T21:00:00Z,27.8888,-97.5696,0.0,20.1,1111122 
TCOON,ioos:station:TCOON:042:1,2012-03-01T21:30:00Z,27.8888,-97.5696,0.0,20.2,1111122 
TCOON,ioos:station:TCOON:042:1,2012-03-01T22:00:00Z,27.8888,-97.5696,0.0,20.7,1111122 
TCOON,ioos:station:TCOON:042:1,2012-03-01T23:30:00Z,27.8888,-97.5696,0.0,21.4,1111122 
TCOON,ioos:station:TCOON:042:1,2012-03-02T00:30:00Z,27.8888,-97.5696,0.0,21.5,1111122 
TCOON,ioos:station:TCOON:042:1,2012-03-02T01:00:00Z,27.8888,-97.5696,0.0,21.5,1111122 
TCOON,ioos:station:TCOON:042:1,2012-03-02T01:30:00Z,27.8888,-97.5696,0.0,21.6,1111122 
TCOON,ioos:station:TCOON:042:1,2012-03-02T02:00:00Z,27.8888,-97.5696,0.0,21.6,1111122 
TCOON,ioos:station:TCOON:042:1,2012-03-02T02:30:00Z,27.8888,-97.5696,0.0,21.6,1111122 
TCOON,ioos:station:TCOON:042:1,2012-03-02T03:00:00Z,27.8888,-97.5696,0.0,21.6,1111122 
TCOON,ioos:station:TCOON:042:1,2012-03-02T03:30:00Z,27.8888,-97.5696,0.0,21.6,1111122 
TCOON,ioos:station:TCOON:042:1,2012-03-02T04:00:00Z,27.8888,-97.5696,0.0,21.6,1111122 
TCOON,ioos:station:TCOON:042:1,2012-03-02T04:30:00Z,27.8888,-97.5696,0.0,21.6,1111122 
TCOON,ioos:station:TCOON:042:1,2012-03-02T05:00:00Z,27.8888,-97.5696,0.0,21.7,1111122 
TCOON,ioos:station:TCOON:042:1,2012-03-02T05:30:00Z,27.8888,-97.5696,0.0,21.6,1111122 
TCOON,ioos:station:TCOON:042:1,2012-03-02T06:30:00Z,27.8888,-97.5696,0.0,21.5,1111122 
TCOON,ioos:station:TCOON:042:1,2012-03-02T07:00:00Z,27.8888,-97.5696,0.0,21.4,1111122 
TCOON,ioos:station:TCOON:042:1,2012-03-02T07:30:00Z,27.8888,-97.5696,0.0,21.4,1111122 
TCOON,ioos:station:TCOON:042:1,2012-03-02T08:00:00Z,27.8888,-97.5696,0.0,21.4,1111122 
TCOON,ioos:station:TCOON:042:1,2012-03-02T08:30:00Z,27.8888,-97.5696,0.0,21.4,1111122 
TCOON,ioos:station:TCOON:042:1,2012-03-02T09:00:00Z,27.8888,-97.5696,0.0,21.4,1111122 
TCOON,ioos:station:TCOON:042:1,2012-03-02T09:30:00Z,27.8888,-97.5696,0.0,21.5,1111122 
TCOON,ioos:station:TCOON:042:1,2012-03-02T10:00:00Z,27.8888,-97.5696,0.0,21.4,1111122 
TCOON,ioos:station:TCOON:042:1,2012-03-02T12:00:00Z,27.8888,-97.5696,0.0,21.7,1111122 
TCOON,ioos:station:TCOON:042:1,2012-03-02T12:30:00Z,27.8888,-97.5696,0.0,21.5,1111122 
TCOON,ioos:station:TCOON:042:1,2012-03-02T13:30:00Z,27.8888,-97.5696,0.0,21.6,1111122 
TCOON,ioos:station:TCOON:042:1,2012-03-02T14:00:00Z,27.8888,-97.5696,0.0,21.6,1111122 
TCOON,ioos:station:TCOON:042:1,2012-03-02T14:30:00Z,27.8888,-97.5696,0.0,21.8,1111122 
TCOON,ioos:station:TCOON:042:1,2012-03-02T15:00:00Z,27.8888,-97.5696,0.0,21.9,1111122 
TCOON,ioos:station:TCOON:042:1,2012-03-02T15:30:00Z,27.8888,-97.5696,0.0,21.8,1111122 
TCOON,ioos:station:TCOON:042:1,2012-03-02T16:00:00Z,27.8888,-97.5696,0.0,21.6,1111122 
TCOON,ioos:station:TCOON:042:1,2012-03-02T16:30:00Z,27.8888,-97.5696,0.0,21.4,1111122 
TCOON,ioos:station:TCOON:042:1,2012-03-02T17:00:00Z,27.8888,-97.5696,0.0,21.3,1111122 
TCOON,ioos:station:TCOON:042:1,2012-03-02T17:30:00Z,27.8888,-97.5696,0.0,21.2,1111122 
TCOON,ioos:station:TCOON:042:1,2012-03-02T18:30:00Z,27.8888,-97.5696,0.0,21.0,1111122 
TCOON,ioos:station:TCOON:042:1,2012-03-02T19:00:00Z,27.8888,-97.5696,0.0,20.9,1111122 
TCOON,ioos:station:TCOON:042:1,2012-03-02T19:30:00Z,27.8888,-97.5696,0.0,20.9,1111122 
TCOON,ioos:station:TCOON:042:1,2012-03-02T20:00:00Z,27.8888,-97.5696,0.0,20.7,1111122 
TCOON,ioos:station:TCOON:042:1,2012-03-02T20:30:00Z,27.8888,-97.5696,0.0,20.7,1111122 
TCOON,ioos:station:TCOON:042:1,2012-03-02T21:00:00Z,27.8888,-97.5696,0.0,20.8,1111122 
TCOON,ioos:station:TCOON:042:1,2012-03-02T21:30:00Z,27.8888,-97.5696,0.0,20.8,1111122 
TCOON,ioos:station:TCOON:042:1,2012-03-02T22:00:00Z,27.8888,-97.5696,0.0,20.6,1111122 
TCOON,ioos:station:TCOON:042:1,2012-03-03T00:00:00Z,27.8888,-97.5696,0.0,20.5,1111122 
TCOON,ioos:station:TCOON:042:1,2012-03-03T00:30:00Z,27.8888,-97.5696,0.0,20.6,1111122 
TCOON,ioos:station:TCOON:042:1,2012-03-03T01:30:00Z,27.8888,-97.5696,0.0,20.7,1111122 
TCOON,ioos:station:TCOON:042:1,2012-03-03T02:00:00Z,27.8888,-97.5696,0.0,20.8,1111122 
TCOON,ioos:station:TCOON:042:1,2012-03-03T03:00:00Z,27.8888,-97.5696,0.0,20.8,1111122 
TCOON,ioos:station:TCOON:042:1,2012-03-03T03:30:00Z,27.8888,-97.5696,0.0,20.9,1111122 
TCOON,ioos:station:TCOON:042:1,2012-03-03T04:00:00Z,27.8888,-97.5696,0.0,21.0,1111122 
TCOON,ioos:station:TCOON:042:1,2012-03-03T04:30:00Z,27.8888,-97.5696,0.0,21.1,1111122 
TCOON,ioos:station:TCOON:042:1,2012-03-03T05:00:00Z,27.8888,-97.5696,0.0,21.0,1111122 
TCOON,ioos:station:TCOON:042:1,2012-03-03T07:00:00Z,27.8888,-97.5696,0.0,21.1,1111122 
TCOON,ioos:station:TCOON:042:1,2012-03-03T08:00:00Z,27.8888,-97.5696,0.0,21.1,1111122 
TCOON,ioos:station:TCOON:042:1,2012-03-03T08:30:00Z,27.8888,-97.5696,0.0,21.1,1111122 
TCOON,ioos:station:TCOON:042:1,2012-03-03T09:00:00Z,27.8888,-97.5696,0.0,20.9,1111122 
TCOON,ioos:station:TCOON:042:1,2012-03-03T09:30:00Z,27.8888,-97.5696,0.0,21.0,1111122 
TCOON,ioos:station:TCOON:042:1,2012-03-03T10:00:00Z,27.8888,-97.5696,0.0,20.9,1111122 
TCOON,ioos:station:TCOON:042:1,2012-03-03T10:30:00Z,27.8888,-97.5696,0.0,21.0,1111122 
TCOON,ioos:station:TCOON:042:1,2012-03-03T11:00:00Z,27.8888,-97.5696,0.0,21.2,1111122 
TCOON,ioos:station:TCOON:042:1,2012-03-03T11:30:00Z,27.8888,-97.5696,0.0,21.2,1111122 
TCOON,ioos:station:TCOON:042:1,2012-03-03T12:00:00Z,27.8888,-97.5696,0.0,21.1,1111122 
TCOON,ioos:station:TCOON:042:1,2012-03-03T12:30:00Z,27.8888,-97.5696,0.0,20.9,1111122 
TCOON,ioos:station:TCOON:042:1,2012-03-03T13:30:00Z,27.8888,-97.5696,0.0,21.6,1111122 
TCOON,ioos:station:TCOON:042:1,2012-03-03T14:00:00Z,27.8888,-97.5696,0.0,21.6,1111122 
TCOON,ioos:station:TCOON:042:1,2012-03-03T14:30:00Z,27.8888,-97.5696,0.0,21.8,1111122 
TCOON,ioos:station:TCOON:042:1,2012-03-03T15:00:00Z,27.8888,-97.5696,0.0,21.9,1111122 
TCOON,ioos:station:TCOON:042:1,2012-03-03T15:30:00Z,27.8888,-97.5696,0.0,22.0,1111122 
TCOON,ioos:station:TCOON:042:1,2012-03-03T16:00:00Z,27.8888,-97.5696,0.0,22.0,1111122 
TCOON,ioos:station:TCOON:042:1,2012-03-03T16:30:00Z,27.8888,-97.5696,0.0,22.0,1111122 
TCOON,ioos:station:TCOON:042:1,2012-03-03T17:00:00Z,27.8888,-97.5696,0.0,22.0,1111122 
TCOON,ioos:station:TCOON:042:1,2012-03-03T17:30:00Z,27.8888,-97.5696,0.0,22.1,1111122 
TCOON,ioos:station:TCOON:042:1,2012-03-03T19:30:00Z,27.8888,-97.5696,0.0,22.3,1111122 
TCOON,ioos:station:TCOON:042:1,2012-03-03T21:30:00Z,27.8888,-97.5696,0.0,22.6,1111122 
TCOON,ioos:station:TCOON:042:1,2012-03-03T22:00:00Z,27.8888,-97.5696,0.0,22.7,1111122 
TCOON,ioos:station:TCOON:042:1,2012-03-03T23:00:00Z,27.8888,-97.5696,0.0,22.8,1111122 
TCOON,ioos:station:TCOON:042:1,2012-03-04T00:00:00Z,27.8888,-97.5696,0.0,23.1,1111122 
TCOON,ioos:station:TCOON:042:1,2012-03-04T01:00:00Z,27.8888,-97.5696,0.0,23.2,1111122 
TCOON,ioos:station:TCOON:042:1,2012-03-04T02:00:00Z,27.8888,-97.5696,0.0,23.3,1111122 
TCOON,ioos:station:TCOON:042:1,2012-03-04T03:00:00Z,27.8888,-97.5696,0.0,23.5,1111122 
TCOON,ioos:station:TCOON:042:1,2012-03-04T03:30:00Z,27.8888,-97.5696,0.0,23.5,1111122 
TCOON,ioos:station:TCOON:042:1,2012-03-04T04:30:00Z,27.8888,-97.5696,0.0,23.5,1111122 
TCOON,ioos:station:TCOON:042:1,2012-03-04T05:00:00Z,27.8888,-97.5696,0.0,23.6,1111122 
TCOON,ioos:station:TCOON:042:1,2012-03-04T05:30:00Z,27.8888,-97.5696,0.0,23.6,1111122 
TCOON,ioos:station:TCOON:042:1,2012-03-04T06:00:00Z,27.8888,-97.5696,0.0,23.7,1111122 
TCOON,ioos:station:TCOON:042:1,2012-03-04T07:00:00Z,27.8888,-97.5696,0.0,23.7,1111122 
TCOON,ioos:station:TCOON:042:1,2012-03-04T07:30:00Z,27.8888,-97.5696,0.0,23.7,1111122 
TCOON,ioos:station:TCOON:042:1,2012-03-04T08:00:00Z,27.8888,-97.5696,0.0,23.8,1111122 
TCOON,ioos:station:TCOON:042:1,2012-03-04T08:30:00Z,27.8888,-97.5696,0.0,23.8,1111122 
TCOON,ioos:station:TCOON:042:1,2012-03-04T09:00:00Z,27.8888,-97.5696,0.0,23.8,1111122 
TCOON,ioos:station:TCOON:042:1,2012-03-04T09:30:00Z,27.8888,-97.5696,0.0,23.8,1111122 
TCOON,ioos:station:TCOON:042:1,2012-03-04T10:00:00Z,27.8888,-97.5696,0.0,23.8,1111122 
TCOON,ioos:station:TCOON:042:1,2012-03-04T10:30:00Z,27.8888,-97.5696,0.0,23.8,1111122 
TCOON,ioos:station:TCOON:042:1,2012-03-04T11:00:00Z,27.8888,-97.5696,0.0,23.8,1111122 
TCOON,ioos:station:TCOON:042:1,2012-03-04T11:30:00Z,27.8888,-97.5696,0.0,23.7,1111122 
TCOON,ioos:station:TCOON:042:1,2012-03-04T12:00:00Z,27.8888,-97.5696,0.0,23.7,1111122 
TCOON,ioos:station:TCOON:042:1,2012-03-04T13:00:00Z,27.8888,-97.5696,0.0,23.7,1111122 
TCOON,ioos:station:TCOON:042:1,2012-03-04T13:30:00Z,27.8888,-97.5696,0.0,23.7,1111122 
TCOON,ioos:station:TCOON:042:1,2012-03-04T14:00:00Z,27.8888,-97.5696,0.0,23.7,1111122 
TCOON,ioos:station:TCOON:042:1,2012-03-04T14:30:00Z,27.8888,-97.5696,0.0,23.7,1111122 
TCOON,ioos:station:TCOON:042:1,2012-03-04T15:30:00Z,27.8888,-97.5696,0.0,23.6,1111122 
TCOON,ioos:station:TCOON:042:1,2012-03-04T16:00:00Z,27.8888,-97.5696,0.0,23.5,1111122 
TCOON,ioos:station:TCOON:042:1,2012-03-04T16:30:00Z,27.8888,-97.5696,0.0,23.4,1111122 
TCOON,ioos:station:TCOON:042:1,2012-03-04T17:00:00Z,27.8888,-97.5696,0.0,23.3,1111122 
TCOON,ioos:station:TCOON:042:1,2012-03-04T18:30:00Z,27.8888,-97.5696,0.0,23.2,1111122 
TCOON,ioos:station:TCOON:042:1,2012-03-04T19:00:00Z,27.8888,-97.5696,0.0,23.1,1111122 
TCOON,ioos:station:TCOON:042:1,2012-03-04T19:30:00Z,27.8888,-97.5696,0.0,23.1,1111122 
TCOON,ioos:station:TCOON:042:1,2012-03-04T20:00:00Z,27.8888,-97.5696,0.0,22.9,1111122 
TCOON,ioos:station:TCOON:042:1,2012-03-04T21:00:00Z,27.8888,-97.5696,0.0,22.8,1111122 
TCOON,ioos:station:TCOON:042:1,2012-03-04T21:30:00Z,27.8888,-97.5696,0.0,22.7,1111122 
TCOON,ioos:station:TCOON:042:1,2012-03-04T22:30:00Z,27.8888,-97.5696,0.0,22.9,1111122 
TCOON,ioos:station:TCOON:042:1,2012-03-04T23:00:00Z,27.8888,-97.5696,0.0,22.9,1111122 
TCOON,ioos:station:TCOON:042:1,2012-03-05T00:00:00Z,27.8888,-97.5696,0.0,23.7,1111122 
TCOON,ioos:station:TCOON:042:1,2012-03-05T00:30:00Z,27.8888,-97.5696,0.0,23.4,1111122 
TCOON,ioos:station:TCOON:042:1,2012-03-05T02:00:00Z,27.8888,-97.5696,0.0,23.3,1111122 
TCOON,ioos:station:TCOON:042:1,2012-03-05T02:30:00Z,27.8888,-97.5696,0.0,23.4,1111122 
TCOON,ioos:station:TCOON:042:1,2012-03-05T03:30:00Z,27.8888,-97.5696,0.0,23.5,1111122 
TCOON,ioos:station:TCOON:042:1,2012-03-05T04:00:00Z,27.8888,-97.5696,0.0,23.6,1111122 
TCOON,ioos:station:TCOON:042:1,2012-03-05T04:30:00Z,27.8888,-97.5696,0.0,23.6,1111122 
TCOON,ioos:station:TCOON:042:1,2012-03-05T06:00:00Z,27.8888,-97.5696,0.0,24.0,1111122 
TCOON,ioos:station:TCOON:042:1,2012-03-05T06:30:00Z,27.8888,-97.5696,0.0,24.1,1111122 
TCOON,ioos:station:TCOON:042:1,2012-03-05T08:00:00Z,27.8888,-97.5696,0.0,24.2,1111122 
TCOON,ioos:station:TCOON:042:1,2012-03-05T08:30:00Z,27.8888,-97.5696,0.0,24.2,1111122 
TCOON,ioos:station:TCOON:042:1,2012-03-05T09:00:00Z,27.8888,-97.5696,0.0,24.2,1111122 
TCOON,ioos:station:TCOON:042:1,2012-03-05T09:30:00Z,27.8888,-97.5696,0.0,24.3,1111122 
TCOON,ioos:station:TCOON:042:1,2012-03-05T10:00:00Z,27.8888,-97.5696,0.0,24.3,1111122 
TCOON,ioos:station:TCOON:042:1,2012-03-05T11:00:00Z,27.8888,-97.5696,0.0,24.2,1111122 
TCOON,ioos:station:TCOON:042:1,2012-03-05T11:30:00Z,27.8888,-97.5696,0.0,24.3,1111122 
TCOON,ioos:station:TCOON:042:1,2012-03-05T12:00:00Z,27.8888,-97.5696,0.0,24.2,1111122 
TCOON,ioos:station:TCOON:042:1,2012-03-05T12:30:00Z,27.8888,-97.5696,0.0,24.3,1111122 
TCOON,ioos:station:TCOON:042:1,2012-03-05T13:00:00Z,27.8888,-97.5696,0.0,24.3,1111122 
TCOON,ioos:station:TCOON:042:1,2012-03-05T13:30:00Z,27.8888,-97.5696,0.0,24.4,1111122 
TCOON,ioos:station:TCOON:042:1,2012-03-05T14:00:00Z,27.8888,-97.5696,0.0,24.4,1111122 
TCOON,ioos:station:TCOON:042:1,2012-03-05T14:30:00Z,27.8888,-97.5696,0.0,24.4,1111122 
TCOON,ioos:station:TCOON:042:1,2012-03-05T15:30:00Z,27.8888,-97.5696,0.0,24.3,1111122 
TCOON,ioos:station:TCOON:042:1,2012-03-05T16:00:00Z,27.8888,-97.5696,0.0,24.1,1111122 
TCOON,ioos:station:TCOON:042:1,2012-03-05T16:30:00Z,27.8888,-97.5696,0.0,23.8,1111122 
TCOON,ioos:station:TCOON:042:1,2012-03-05T17:00:00Z,27.8888,-97.5696,0.0,24.0,1111122 
TCOON,ioos:station:TCOON:042:1,2012-03-05T19:30:00Z,27.8888,-97.5696,0.0,26.5,1111122 
TCOON,ioos:station:TCOON:042:1,2012-03-05T20:00:00Z,27.8888,-97.5696,0.0,26.9,1111122 
TCOON,ioos:station:TCOON:042:1,2012-03-05T20:30:00Z,27.8888,-97.5696,0.0,26.8,1111122 
TCOON,ioos:station:TCOON:042:1,2012-03-05T21:00:00Z,27.8888,-97.5696,0.0,26.7,1111122 
TCOON,ioos:station:TCOON:042:1,2012-03-05T21:30:00Z,27.8888,-97.5696,0.0,26.9,1111122 
TCOON,ioos:station:TCOON:042:1,2012-03-05T22:30:00Z,27.8888,-97.5696,0.0,27.3,1111122 
TCOON,ioos:station:TCOON:042:1,2012-03-05T23:00:00Z,27.8888,-97.5696,0.0,27.5,1111122 
TCOON,ioos:station:TCOON:042:1,2012-03-05T23:30:00Z,27.8888,-97.5696,0.0,28.0,1111122 
TCOON,ioos:station:TCOON:042:1,2012-03-06T00:30:00Z,27.8888,-97.5696,0.0,28.2,1111122 
TCOON,ioos:station:TCOON:042:1,2012-03-06T02:30:00Z,27.8888,-97.5696,0.0,28.5,1111122 
TCOON,ioos:station:TCOON:042:1,2012-03-06T03:00:00Z,27.8888,-97.5696,0.0,28.2,1111122 
TCOON,ioos:station:TCOON:042:1,2012-03-06T03:30:00Z,27.8888,-97.5696,0.0,28.5,1111122 
TCOON,ioos:station:TCOON:042:1,2012-03-06T05:00:00Z,27.8888,-97.5696,0.0,28.5,1111122 
TCOON,ioos:station:TCOON:042:1,2012-03-06T06:00:00Z,27.8888,-97.5696,0.0,28.7,1111122 
TCOON,ioos:station:TCOON:042:1,2012-03-06T07:00:00Z,27.8888,-97.5696,0.0,28.5,1111122 
TCOON,ioos:station:TCOON:042:1,2012-03-06T07:30:00Z,27.8888,-97.5696,0.0,28.8,1111122 
TCOON,ioos:station:TCOON:042:1,2012-03-06T08:00:00Z,27.8888,-97.5696,0.0,28.8,1111122 
TCOON,ioos:station:TCOON:042:1,2012-03-06T08:30:00Z,27.8888,-97.5696,0.0,28.7,1111122 
TCOON,ioos:station:TCOON:042:1,2012-03-06T09:00:00Z,27.8888,-97.5696,0.0,28.7,1111122 
TCOON,ioos:station:TCOON:042:1,2012-03-06T09:30:00Z,27.8888,-97.5696,0.0,28.6,1111122 
TCOON,ioos:station:TCOON:042:1,2012-03-06T10:00:00Z,27.8888,-97.5696,0.0,28.6,1111122 
TCOON,ioos:station:TCOON:042:1,2012-03-06T10:30:00Z,27.8888,-97.5696,0.0,28.6,1111122 
TCOON,ioos:station:TCOON:042:1,2012-03-06T11:30:00Z,27.8888,-97.5696,0.0,28.5,1111122 
TCOON,ioos:station:TCOON:042:1,2012-03-06T12:00:00Z,27.8888,-97.5696,0.0,28.6,1111122 
TCOON,ioos:station:TCOON:042:1,2012-03-06T12:30:00Z,27.8888,-97.5696,0.0,28.5,1111122 
TCOON,ioos:station:TCOON:042:1,2012-03-06T13:00:00Z,27.8888,-97.5696,0.0,28.6,1111122 
TCOON,ioos:station:TCOON:042:1,2012-03-06T13:30:00Z,27.8888,-97.5696,0.0,28.5,1111122 
TCOON,ioos:station:TCOON:042:1,2012-03-06T14:00:00Z,27.8888,-97.5696,0.0,28.5,1111122 
TCOON,ioos:station:TCOON:042:1,2012-03-06T14:30:00Z,27.8888,-97.5696,0.0,28.4,1111122 
TCOON,ioos:station:TCOON:042:1,2012-03-06T15:00:00Z,27.8888,-97.5696,0.0,28.4,1111122 
TCOON,ioos:station:TCOON:042:1,2012-03-06T15:30:00Z,27.8888,-97.5696,0.0,28.3,1111122 
TCOON,ioos:station:TCOON:042:1,2012-03-06T16:00:00Z,27.8888,-97.5696,0.0,28.1,1111122 
TCOON,ioos:station:TCOON:042:1,2012-03-06T16:30:00Z,27.8888,-97.5696,0.0,28.0,1111122 
TCOON,ioos:station:TCOON:042:1,2012-03-06T17:00:00Z,27.8888,-97.5696,0.0,28.0,1111122 
TCOON,ioos:station:TCOON:042:1,2012-03-06T17:30:00Z,27.8888,-97.5696,0.0,28.1,1111122 
TCOON,ioos:station:TCOON:042:1,2012-03-06T18:00:00Z,27.8888,-97.5696,0.0,28.0,1111122 
TCOON,ioos:station:TCOON:042:1,2012-03-06T19:00:00Z,27.8888,-97.5696,0.0,28.2,1111122 
TCOON,ioos:station:TCOON:042:1,2012-03-06T19:30:00Z,27.8888,-97.5696,0.0,28.2,1111122 
TCOON,ioos:station:TCOON:042:1,2012-03-06T20:00:00Z,27.8888,-97.5696,0.0,28.2,1111122 
TCOON,ioos:station:TCOON:042:1,2012-03-06T20:30:00Z,27.8888,-97.5696,0.0,28.1,1111122 
TCOON,ioos:station:TCOON:042:1,2012-03-06T21:00:00Z,27.8888,-97.5696,0.0,28.4,1111122 
TCOON,ioos:station:TCOON:042:1,2012-03-06T21:30:00Z,27.8888,-97.5696,0.0,28.3,1111122 
TCOON,ioos:station:TCOON:042:1,2012-03-06T22:00:00Z,27.8888,-97.5696,0.0,28.6,1111122 
TCOON,ioos:station:TCOON:042:1,2012-03-06T23:00:00Z,27.8888,-97.5696,0.0,28.3,1111122 
TCOON,ioos:station:TCOON:042:1,2012-03-06T23:30:00Z,27.8888,-97.5696,0.0,28.0,1111122 
TCOON,ioos:station:TCOON:042:1,2012-03-07T00:00:00Z,27.8888,-97.5696,0.0,28.1,1111122 
TCOON,ioos:station:TCOON:042:1,2012-03-07T00:30:00Z,27.8888,-97.5696,0.0,28.5,1111122 
TCOON,ioos:station:TCOON:042:1,2012-03-07T01:00:00Z,27.8888,-97.5696,0.0,28.5,1111122 
TCOON,ioos:station:TCOON:042:1,2012-03-07T01:30:00Z,27.8888,-97.5696,0.0,28.1,1111122 
TCOON,ioos:station:TCOON:042:1,2012-03-07T02:30:00Z,27.8888,-97.5696,0.0,28.5,1111122 
TCOON,ioos:station:TCOON:042:1,2012-03-07T03:00:00Z,27.8888,-97.5696,0.0,28.3,1111122 
TCOON,ioos:station:TCOON:042:1,2012-03-07T03:30:00Z,27.8888,-97.5696,0.0,28.6,1111122 
TCOON,ioos:station:TCOON:042:1,2012-03-07T04:30:00Z,27.8888,-97.5696,0.0,28.8,1111122 
TCOON,ioos:station:TCOON:042:1,2012-03-07T05:00:00Z,27.8888,-97.5696,0.0,28.8,1111122 
TCOON,ioos:station:TCOON:042:1,2012-03-07T06:00:00Z,27.8888,-97.5696,0.0,29.0,1111122 
TCOON,ioos:station:TCOON:042:1,2012-03-07T06:30:00Z,27.8888,-97.5696,0.0,29.2,1111122 
TCOON,ioos:station:TCOON:042:1,2012-03-07T07:00:00Z,27.8888,-97.5696,0.0,29.2,1111122 
TCOON,ioos:station:TCOON:042:1,2012-03-07T07:30:00Z,27.8888,-97.5696,0.0,29.2,1111122 
TCOON,ioos:station:TCOON:042:1,2012-03-07T08:00:00Z,27.8888,-97.5696,0.0,29.3,1111122 
TCOON,ioos:station:TCOON:042:1,2012-03-07T09:00:00Z,27.8888,-97.5696,0.0,29.4,1111122 
TCOON,ioos:station:TCOON:042:1,2012-03-07T10:00:00Z,27.8888,-97.5696,0.0,29.1,1111122 
TCOON,ioos:station:TCOON:042:1,2012-03-07T10:30:00Z,27.8888,-97.5696,0.0,29.1,1111122 
TCOON,ioos:station:TCOON:042:1,2012-03-07T11:00:00Z,27.8888,-97.5696,0.0,29.0,1111122 
TCOON,ioos:station:TCOON:042:1,2012-03-07T11:30:00Z,27.8888,-97.5696,0.0,28.8,1111122 
TCOON,ioos:station:TCOON:042:1,2012-03-07T13:00:00Z,27.8888,-97.5696,0.0,28.9,1111122 
TCOON,ioos:station:TCOON:042:1,2012-03-07T13:30:00Z,27.8888,-97.5696,0.0,29.0,1111122 
TCOON,ioos:station:TCOON:042:1,2012-03-07T14:30:00Z,27.8888,-97.5696,0.0,30.2,1111122 
TCOON,ioos:station:TCOON:042:1,2012-03-07T15:00:00Z,27.8888,-97.5696,0.0,30.0,1111122 
TCOON,ioos:station:TCOON:042:1,2012-03-07T15:30:00Z,27.8888,-97.5696,0.0,29.6,1111122 
TCOON,ioos:station:TCOON:042:1,2012-03-07T16:00:00Z,27.8888,-97.5696,0.0,29.2,1111122 
TCOON,ioos:station:TCOON:042:1,2012-03-07T17:00:00Z,27.8888,-97.5696,0.0,29.0,1111122 
TCOON,ioos:station:TCOON:042:1,2012-03-07T17:30:00Z,27.8888,-97.5696,0.0,28.8,1111122 
TCOON,ioos:station:TCOON:042:1,2012-03-07T18:00:00Z,27.8888,-97.5696,0.0,28.9,1111122 
TCOON,ioos:station:TCOON:042:1,2012-03-07T20:00:00Z,27.8888,-97.5696,0.0,29.3,1111122 
TCOON,ioos:station:TCOON:042:1,2012-03-07T21:00:00Z,27.8888,-97.5696,0.0,30.2,1111122 
TCOON,ioos:station:TCOON:042:1,2012-03-07T22:00:00Z,27.8888,-97.5696,0.0,30.8,1111122 
TCOON,ioos:station:TCOON:042:1,2012-03-07T22:30:00Z,27.8888,-97.5696,0.0,31.2,1111122 
TCOON,ioos:station:TCOON:042:1,2012-03-07T23:30:00Z,27.8888,-97.5696,0.0,30.4,1111122 
TCOON,ioos:station:TCOON:042:1,2012-03-08T00:00:00Z,27.8888,-97.5696,0.0,31.1,1111122 
TCOON,ioos:station:TCOON:042:1,2012-03-08T00:30:00Z,27.8888,-97.5696,0.0,30.5,1111122 
TCOON,ioos:station:TCOON:042:1,2012-03-08T01:00:00Z,27.8888,-97.5696,0.0,31.0,1111122 
TCOON,ioos:station:TCOON:042:1,2012-03-08T01:30:00Z,27.8888,-97.5696,0.0,32.1,1111122 
TCOON,ioos:station:TCOON:042:1,2012-03-08T03:00:00Z,27.8888,-97.5696,0.0,31.8,1111122 
TCOON,ioos:station:TCOON:042:1,2012-03-08T03:30:00Z,27.8888,-97.5696,0.0,31.8,1111122 
TCOON,ioos:station:TCOON:042:1,2012-03-08T04:00:00Z,27.8888,-97.5696,0.0,31.6,1111122 
TCOON,ioos:station:TCOON:042:1,2012-03-08T04:30:00Z,27.8888,-97.5696,0.0,30.8,1111122 
TCOON,ioos:station:TCOON:042:1,2012-03-08T05:00:00Z,27.8888,-97.5696,0.0,30.3,1111122 
TCOON,ioos:station:TCOON:042:1,2012-03-08T06:00:00Z,27.8888,-97.5696,0.0,30.1,1111122 
TCOON,ioos:station:TCOON:042:1,2012-03-08T06:30:00Z,27.8888,-97.5696,0.0,29.9,1111122 
TCOON,ioos:station:TCOON:042:1,2012-03-08T07:30:00Z,27.8888,-97.5696,0.0,30.0,1111122 
TCOON,ioos:station:TCOON:042:1,2012-03-08T08:30:00Z,27.8888,-97.5696,0.0,29.8,1111122 
TCOON,ioos:station:TCOON:042:1,2012-03-08T09:00:00Z,27.8888,-97.5696,0.0,29.7,1111122 
TCOON,ioos:station:TCOON:042:1,2012-03-08T10:00:00Z,27.8888,-97.5696,0.0,30.8,1111122 
TCOON,ioos:station:TCOON:042:1,2012-03-08T10:30:00Z,27.8888,-97.5696,0.0,30.8,1111122 
TCOON,ioos:station:TCOON:042:1,2012-03-08T11:00:00Z,27.8888,-97.5696,0.0,30.8,1111122 
TCOON,ioos:station:TCOON:042:1,2012-03-08T12:30:00Z,27.8888,-97.5696,0.0,31.4,1111122 
TCOON,ioos:station:TCOON:042:1,2012-03-08T13:00:00Z,27.8888,-97.5696,0.0,31.1,1111122 
TCOON,ioos:station:TCOON:042:1,2012-03-08T13:30:00Z,27.8888,-97.5696,0.0,30.6,1111122 
TCOON,ioos:station:TCOON:042:1,2012-03-08T14:00:00Z,27.8888,-97.5696,0.0,30.8,1111122 
TCOON,ioos:station:TCOON:042:1,2012-03-08T15:30:00Z,27.8888,-97.5696,0.0,31.5,1111122 
TCOON,ioos:station:TCOON:042:1,2012-03-08T16:00:00Z,27.8888,-97.5696,0.0,31.4,1111122 
TCOON,ioos:station:TCOON:042:1,2012-03-08T16:30:00Z,27.8888,-97.5696,0.0,31.1,1111122 
TCOON,ioos:station:TCOON:042:1,2012-03-08T17:00:00Z,27.8888,-97.5696,0.0,30.6,1111122 
TCOON,ioos:station:TCOON:042:1,2012-03-08T19:00:00Z,27.8888,-97.5696,0.0,30.6,1111122 
TCOON,ioos:station:TCOON:042:1,2012-03-08T19:30:00Z,27.8888,-97.5696,0.0,30.4,1111122 
TCOON,ioos:station:TCOON:042:1,2012-03-08T20:00:00Z,27.8888,-97.5696,0.0,30.4,1111122 
TCOON,ioos:station:TCOON:042:1,2012-03-08T21:00:00Z,27.8888,-97.5696,0.0,31.4,1111122 
TCOON,ioos:station:TCOON:042:1,2012-03-08T21:30:00Z,27.8888,-97.5696,0.0,32.1,1111122 
TCOON,ioos:station:TCOON:042:1,2012-03-08T22:00:00Z,27.8888,-97.5696,0.0,32.2,1111122 
TCOON,ioos:station:TCOON:042:1,2012-03-08T22:30:00Z,27.8888,-97.5696,0.0,32.1,1111122 
TCOON,ioos:station:TCOON:042:1,2012-03-08T23:00:00Z,27.8888,-97.5696,0.0,32.0,1111122 